Location: N�rnberg
(49.4471°N, 11.0632°E)
Time: 16:31:30
(UTC+02:00)

VELOX 1 - Visible Passes

Search period start: 19 April 2026 00:00
Search period end: 29 April 2026 00:00
Orbit: 569 x 581 km, 98.3° (Epoch: 19 April)

Date Brightness Start Highest point End Pass type
(mag) Time Alt. Az. Time Alt. Az. Time Alt. Az.
19 Apr ? 00:46:08 10° NNE 00:48:31 34° NNE 00:48:31 34° NNE visible
19 Apr ? 02:23:16 10° NW 02:24:45 12° NW 02:24:45 12° NW visible
20 Apr ? 00:49:33 10° NNE 00:52:04 37° N 00:52:04 37° N visible
20 Apr ? 02:26:59 10° NW 02:28:07 11° NW 02:28:19 11° WNW visible
21 Apr ? 00:52:59 10° NNE 00:55:37 39° N 00:55:37 39° N visible
21 Apr ? 02:30:51 10° NW 02:31:30 10° NW 02:31:51 10° WNW visible
21 Apr ? 23:22:54 10° ENE 23:22:55 10° ENE 23:22:55 10° ENE visible
22 Apr ? 00:56:24 10° N 00:59:09 41° N 00:59:09 41° N visible
22 Apr ? 23:26:06 10° ENE 23:26:27 11° ENE 23:26:27 11° ENE visible
23 Apr ? 00:59:49 10° N 01:02:41 43° N 01:02:41 43° N visible
23 Apr ? 23:29:18 10° NE 23:29:58 12° ENE 23:29:58 12° ENE visible
24 Apr ? 01:03:13 10° N 01:06:12 44° NNW 01:06:12 44° NNW visible
24 Apr ? 23:32:33 10° NE 23:33:29 13° ENE 23:33:29 13° ENE visible
25 Apr ? 01:06:37 10° N 01:09:43 44° NNW 01:09:43 44° NNW visible
25 Apr ? 23:35:47 10° NE 23:36:59 14° ENE 23:36:59 14° ENE visible
26 Apr ? 01:10:01 10° N 01:13:13 44° NNW 01:13:13 44° NNW visible
26 Apr ? 23:39:02 10° NE 23:40:29 16° ENE 23:40:29 16° ENE visible
27 Apr ? 01:13:24 10° N 01:16:43 44° NW 01:16:43 44° NW visible
27 Apr ? 23:42:17 10° NE 23:43:58 17° ENE 23:43:58 17° ENE visible
28 Apr ? 01:16:47 10° N 01:20:12 43° NW 01:20:12 43° NW visible
28 Apr ? 23:45:33 10° NE 23:47:26 18° ENE 23:47:26 18° ENE visible
